Home   Weather   Casper   Past weeks

Flag for USA Past Weather in Casper, Wyoming, USA — Yesterday and Last 2 Weeks

Now
4 °F

Sunny.


Feels Like: -7 °F
Forecast: -12 / 2 °F
Wind: 6 mph from Southwest

Location: Natrona County International Airport

Current Time: Dec 7, 2016 at 3:22:52 pm

Latest Report: Dec 7, 2016 at 2:53 pm


Visibility: 10 mi

Pressure: 30.58 "Hg (24.83 "Hg at 1569m altitude)

Humidity: 69%

Dew Point: -4 °F

Location of CasperLocation

Past Weather in Casper — Graph

°F

Casper Temperature Yesterday

Maximum temperature yesterday: 13 °F (at 11:53 am)
Minimum temperature yesterday: -5 °F (at 6:53 am)
Average temperature yesterday: 2 °F

High & Low Weather Summary for the Past Weeks

 TemperatureHumidityPressure
High49 °F (Nov 26, 11:53 am)100% (Nov 24, 6:48 am)30.55 "Hg (Nov 24, 6:48 am)
Low-9 °F (Dec 7, 3:53 am)25% (Nov 25, 11:53 am)29.27 "Hg (Nov 27, 2:53 pm)
Average27 °F64%29.98 "Hg
* Reported Nov 22 1:53 pm — Dec 7 1:53 pm, Casper, Weather by CustomWeather, © 2016

Note: Actual official high and low records may vary slightly from our data, if they occured in-between our weather recording intervals... More about our weather records

Advertising

Casper Weather History for the Previous 24 Hours

Scroll right to see more
 ConditionsComfort  
Time TempWeatherWind HumidityBarometerVisibility
1:53 pm
Wed, Dec 7
3 °FSunny.5 mph72%30.55 "Hg10 mi
12:53 pm2 °FSunny.5 mph76%30.55 "Hg10 mi
11:53 am3 °FSunny.No wind72%30.55 "Hg10 mi
10:53 am3 °FSunny.No wind72%30.55 "Hg10 mi
9:53 am-2 °FMore clouds than sun.5 mph83%30.55 "Hg7 mi
8:53 am-4 °FPartly sunny.3 mph86%30.52 "Hg10 mi
7:53 am-7 °FIce fog.5 mphN/A30.51 "Hg6 mi
6:53 am-8 °FIce fog.3 mph83%30.52 "Hg6 mi
5:53 am-8 °FLight snow. Ice fog.No wind83%30.49 "Hg4 mi
4:53 am-4 °FLight snow. Ice fog.No wind83%30.44 "Hg2 mi
3:53 am-9 °FOvercast.6 mph87%30.43 "Hg9 mi
2:53 am-5 °FMostly cloudy.7 mph83%30.38 "Hg8 mi
1:53 am1 °FLight snow. Mostly cloudy.8 mph79%30.33 "Hg5 mi
12:53 am2 °FOvercast.12 mph83%30.26 "Hg8 mi
11:53 pm
Tue, Dec 6
3 °FLight snow. Ice fog.16 mph87%30.24 "Hg2 mi
10:53 pm4 °FLight snow. Ice fog.17 mph88%30.22 "Hg4 mi
9:53 pm4 °FIce fog.16 mph88%30.23 "Hg6 mi
8:53 pm5 °FOvercast.14 mph83%30.24 "Hg8 mi
7:53 pm5 °FOvercast.13 mph83%30.24 "Hg9 mi
6:53 pm0 °FPassing clouds.6 mph87%30.25 "Hg10 mi
5:53 pm0 °FPassing clouds.12 mph87%30.22 "Hg10 mi
4:53 pm0 °FClear.9 mph79%30.19 "Hg10 mi
3:53 pm3 °FSunny.8 mph72%30.12 "Hg10 mi
Weather by CustomWeather, © 2016

See weather overviewHow to use our weather pages